Theta_e
308 308 308 308 308 308 309 308 308 309 309 309 309 309 309 309 309 309 309 309 309 309 310 310 310 309 309 309 308 308 308 307 307 306 308 310 306 306 306 305 305 310 309 307 309 309 309 310 309 309 310 311 311 312 312 312 309 310 313 312 311 310 310 311 312 311 311 313 312 310 311 309 318 336 338 337 343 343 342 341 341 343 344 345 347 346 343 340
308 308 307 308 308 308 309 308 308 308 309 309 309 309 309 309 309 309 310 309 309 309 310 309 309 309 308 309 308 307 307 306 306 308 313 310 310 308 306 304 306 310 308 307 308 308 310 309 309 309 310 311 311 311 312 312 311 312 313 311 311 311 311 312 312 311 311 312 312 309 310 308 313 329 334 336 344 343 342 342 342 346 345 345 346 344 342 340
307 308 307 308 308 308 308 308 308 308 308 309 309 308 309 309 309 309 310 310 309 309 309 309 309 308 308 308 307 308 307 306 312 319 318 314 313 309 307 305 307 310 309 308 307 308 310 309 309 310 311 312 310 310 312 311 311 311 311 312 311 311 311 312 310 311 311 309 312 311 309 310 310 319 330 337 343 343 342 342 343 347 346 346 344 343 343 340
307 307 307 308 308 308 308 308 308 308 308 309 308 308 309 309 309 309 309 309 309 309 309 309 309 308 308 308 307 308 306 311 319 318 317 317 314 309 307 306 308 309 308 309 308 308 310 309 309 310 311 312 309 309 312 311 311 310 310 313 311 309 310 311 310 311 310 309 310 310 310 312 309 315 329 338 341 341 341 341 341 345 346 347 344 343 343 341
307 307 307 307 307 308 308 308 307 307 308 309 308 309 309 309 309 310 309 309 309 309 309 308 308 308 308 307 307 308 309 315 317 316 315 316 313 308 306 307 310 310 309 310 307 308 308 308 309 310 311 311 310 311 312 310 309 310 310 312 310 308 310 312 311 310 309 309 309 310 311 310 312 321 334 338 334 333 335 335 337 342 344 345 344 343 343 342
307 307 307 307 307 307 307 308 308 308 308 309 309 309 309 309 309 309 309 309 309 309 309 308 308 308 308 306 308 309 311 311 312 313 312 315 312 307 306 309 312 310 309 308 306 307 308 308 310 311 311 311 311 312 312 309 307 311 310 309 309 308 310 311 311 310 309 309 310 310 309 308 311 317 330 337 331 326 328 327 334 343 343 345 345 344 343 341
307 306 307 307 307 307 307 307 308 308 308 308 308 309 309 309 309 309 309 309 309 308 308 308 308 308 307 306 310 310 311 311 311 311 311 315 313 306 306 310 312 310 309 308 306 307 308 309 310 310 311 311 311 311 311 309 307 310 311 310 310 308 309 310 310 309 309 309 309 309 307 310 310 309 322 335 330 328 332 331 337 344 344 345 344 343 343 342
306 306 307 306 307 307 307 307 307 307 307 307 308 308 309 309 309 309 309 309 308 308 308 308 308 307 306 307 312 312 312 314 312 314 314 316 313 306 308 310 311 310 309 309 308 308 308 309 310 309 311 311 310 311 310 309 309 309 311 311 309 308 309 309 308 309 309 307 307 307 308 309 309 311 319 325 327 334 338 338 341 343 344 343 343 344 344 342
306 307 307 306 306 307 307 307 307 307 307 307 308 308 309 309 308 308 308 309 308 308 308 308 308 307 307 308 311 309 309 313 313 316 317 317 313 306 309 310 310 311 309 308 308 307 307 308 310 309 311 310 310 311 309 310 310 310 311 310 309 309 309 309 308 310 309 307 307 308 311 309 307 312 315 320 332 338 339 341 342 342 343 343 343 344 344 342
306 306 306 306 306 306 306 306 307 307 307 307 308 308 308 308 308 308 308 309 308 308 308 308 308 307 308 309 310 307 308 312 312 315 317 317 312 307 310 310 311 312 309 307 307 307 307 308 310 310 311 310 308 309 309 310 310 309 310 310 309 309 308 308 309 310 308 308 308 309 312 309 308 312 312 328 338 339 340 342 342 343 343 343 343 344 345 343
305 305 306 306 306 306 306 306 307 307 306 307 306 307 307 307 308 308 308 309 308 308 308 307 307 306 307 310 308 303 309 311 310 312 315 316 313 309 310 310 311 313 311 307 307 307 306 307 308 310 311 310 308 308 307 308 308 308 309 309 310 309 308 308 309 309 308 309 309 308 310 308 309 311 312 331 339 340 341 342 342 343 343 343 344 344 344 343
303 304 304 304 305 306 306 306 306 307 307 306 306 306 306 307 307 308 308 308 308 308 307 307 307 307 307 310 309 306 307 309 310 311 313 314 314 311 309 310 311 313 312 309 308 307 306 308 309 311 311 310 310 309 308 307 307 308 309 310 311 310 310 310 309 308 308 310 308 307 310 309 311 311 316 332 340 341 341 342 342 343 343 343 344 343 344 342
301 301 301 302 303 305 305 306 306 306 307 306 306 305 306 306 306 307 307 308 308 308 307 307 307 306 309 313 311 309 308 309 311 312 313 313 313 311 309 310 311 312 313 311 310 308 307 309 311 312 311 310 312 310 308 307 307 309 309 309 311 310 310 310 307 307 308 310 308 308 309 310 312 310 318 333 341 341 342 342 342 343 343 343 343 343 344 342
300 300 300 300 301 302 304 305 305 306 306 306 305 305 305 305 305 306 307 308 308 308 308 307 306 307 311 314 310 310 312 313 312 312 312 313 312 310 310 310 312 312 312 310 309 308 308 309 309 310 310 310 311 310 309 308 308 309 308 308 310 309 309 309 308 308 309 308 307 309 309 309 314 309 314 333 341 341 343 342 342 343 343 343 343 342 343 341
299 299 299 299 300 300 301 303 304 305 306 306 305 305 304 304 305 306 307 308 308 307 307 307 307 308 313 315 311 313 315 315 315 315 313 312 310 309 310 311 311 311 311 310 308 307 307 307 307 309 309 309 309 310 310 309 309 309 309 310 310 308 309 311 310 310 310 309 307 310 310 309 315 310 310 330 343 340 342 342 341 343 342 342 342 342 343 340
298 298 299 299 300 300 300 302 303 304 305 306 305 305 304 304 305 306 308 308 307 307 307 309 308 308 314 315 311 312 313 313 315 315 314 313 309 308 309 310 310 309 309 309 308 307 307 307 308 308 309 308 309 310 310 310 310 309 309 311 311 309 310 311 311 310 309 310 308 309 310 310 314 309 309 329 342 340 342 342 341 343 342 341 341 341 342 339
299 298 299 299 300 300 300 301 302 302 304 305 305 306 306 305 307 308 308 308 308 307 308 310 308 308 313 312 310 311 311 312 312 314 315 312 308 308 309 308 308 306 307 308 307 306 307 308 309 308 309 308 309 310 311 310 310 310 310 312 312 311 311 311 312 310 307 309 310 310 310 311 312 311 316 334 341 340 342 342 341 343 342 341 341 340 340 339
300 299 299 299 300 300 300 301 301 301 302 304 306 308 308 307 308 308 308 308 307 307 308 309 308 311 310 309 310 310 310 312 311 312 314 311 307 309 309 308 307 306 307 308 307 308 308 309 309 310 310 309 309 310 311 310 311 311 312 312 311 311 311 311 313 311 308 310 311 310 310 312 312 310 321 338 340 340 343 341 342 342 341 341 340 340 340 339
300 299 299 299 300 300 300 301 301 301 300 303 307 309 309 309 309 309 308 308 309 313 315 313 312 312 310 309 309 311 312 312 311 311 312 310 307 308 309 307 306 307 307 308 308 308 308 309 310 310 311 310 311 311 310 310 311 311 312 311 312 311 311 312 312 310 310 312 312 312 311 312 314 308 318 337 341 340 342 340 342 342 340 341 339 340 339 338
300 300 300 300 300 300 300 301 301 301 301 301 304 309 313 314 314 313 311 310 312 314 315 315 313 312 312 311 311 312 313 312 311 310 310 310 308 308 309 307 308 308 308 311 310 308 309 310 311 311 312 315 316 316 315 314 313 312 311 311 311 311 312 312 312 310 310 314 313 313 313 311 314 310 315 334 341 340 341 341 341 342 341 340 339 339 339 338
300 300 300 300 300 301 300 300 301 301 302 301 303 310 313 311 313 314 313 314 314 313 314 313 313 312 312 312 311 312 313 312 312 311 310 310 309 309 309 308 310 310 309 311 310 310 309 310 312 315 317 320 320 319 318 317 314 313 311 311 312 311 313 313 312 310 310 314 314 312 312 310 312 311 313 331 343 340 341 343 341 341 340 340 339 338 339 338
300 301 301 300 301 301 300 300 300 300 302 303 304 309 312 309 311 310 310 313 313 313 314 313 312 312 312 311 311 312 313 314 314 312 309 309 309 309 308 308 310 311 310 310 310 311 311 311 314 316 317 319 319 316 317 317 315 314 312 312 314 311 312 313 312 312 311 312 313 311 311 311 313 312 312 327 342 340 340 342 341 341 340 340 339 338 338 338
300 301 301 302 301 300 300 300 299 301 304 305 304 307 310 309 308 309 310 312 312 313 314 313 313 313 312 313 312 312 313 313 314 312 309 308 309 309 309 309 310 310 310 310 311 312 311 312 313 314 314 317 318 316 316 317 315 314 313 312 313 312 310 312 313 314 313 313 313 311 312 313 314 314 313 320 330 331 334 338 338 339 340 339 338 337 338 338
301 302 302 303 301 300 301 298 300 304 305 303 303 307 308 306 308 310 311 314 315 314 313 313 313 313 313 314 313 313 313 313 313 313 310 309 309 308 308 310 310 309 309 310 311 311 310 310 309 310 313 315 318 317 316 314 313 315 316 313 312 313 311 312 313 316 316 315 315 313 312 313 315 316 314 315 321 326 331 336 338 338 339 338 337 337 337 338
302 302 303 303 302 301 299 299 304 306 303 301 305 308 305 304 309 311 313 317 317 315 314 313 313 314 314 313 314 313 313 313 314 314 310 308 309 308 308 309 309 309 309 309 309 310 310 310 309 312 313 313 316 317 315 314 313 314 317 315 314 314 314 314 315 316 315 314 315 313 311 312 315 317 315 314 319 326 329 334 338 338 338 338 337 338 337 337
303 302 303 303 303 301 299 303 306 304 301 303 307 308 304 304 311 312 314 319 318 317 316 313 313 315 314 313 313 313 314 313 313 312 309 309 309 309 309 307 307 309 309 308 310 311 310 308 309 314 315 313 313 314 315 315 313 312 317 318 314 312 315 317 316 315 313 313 316 315 311 312 314 315 314 313 317 324 326 331 336 337 338 338 338 338 337 336
301 301 303 303 303 303 302 303 303 300 301 304 306 306 302 306 312 312 315 319 318 318 317 312 312 314 313 313 312 313 315 313 312 310 308 309 310 309 309 308 307 308 308 310 312 311 312 310 310 315 316 312 310 313 315 314 312 314 318 317 312 311 314 318 318 315 313 315 316 316 313 312 313 314 315 314 317 321 323 327 332 334 337 337 338 337 336 337
299 301 301 302 303 303 303 302 300 301 302 303 304 303 302 308 313 315 317 315 313 316 315 311 311 312 311 312 312 313 313 313 313 311 309 309 310 309 309 309 309 309 309 310 311 312 314 314 314 315 315 312 311 314 315 313 312 315 315 313 311 312 315 318 316 314 316 316 313 315 315 313 313 314 315 314 317 320 321 323 327 331 335 335 336 336 335 335
299 300 301 301 302 302 302 301 301 302 301 302 302 301 304 311 314 316 315 312 313 314 312 311 311 310 311 312 313 313 311 313 313 310 309 309 309 309 309 309 309 308 308 309 312 314 313 312 313 313 313 313 314 315 312 312 314 313 310 310 311 312 315 317 315 314 317 315 312 315 316 313 312 314 315 314 316 318 320 321 321 325 330 333 334 334 334 334
298 300 300 301 301 301 302 301 302 301 301 301 301 301 307 313 317 314 310 312 316 313 309 311 311 311 313 314 314 313 312 313 311 308 309 310 309 309 308 308 309 309 311 311 312 312 311 310 311 311 311 312 313 309 307 310 311 310 310 311 311 313 316 317 316 315 315 313 312 315 316 315 312 314 315 315 315 315 316 318 318 318 323 329 332 332 332 332
298 299 299 301 302 302 302 302 303 302 304 302 300 305 311 314 316 312 312 314 313 312 312 311 311 311 313 315 314 313 313 313 310 309 311 309 309 310 308 309 310 311 314 314 311 311 311 310 311 312 312 311 309 308 306 306 307 309 313 313 312 314 316 315 315 315 314 314 314 313 315 316 312 313 315 315 315 313 313 316 316 315 316 321 327 330 330 330
298 298 300 302 303 303 303 303 302 303 305 301 302 311 315 312 311 312 316 315 312 314 314 311 311 312 311 313 313 312 313 314 312 311 311 310 310 311 310 312 313 312 312 313 313 314 313 311 310 311 311 310 310 310 308 307 308 310 313 313 312 313 314 313 314 314 314 314 314 313 314 314 313 314 314 315 316 314 314 315 315 315 315 315 318 324 327 328
298 299 302 304 304 304 304 303 302 302 302 300 304 314 315 311 312 314 314 312 312 314 313 311 312 311 310 311 312 311 312 313 313 311 311 311 311 311 310 311 313 314 315 314 313 314 314 314 312 310 310 311 311 311 311 311 310 311 312 313 313 312 313 313 313 313 314 315 314 313 313 313 313 314 314 314 315 316 316 317 318 318 318 317 314 317 324 326
299 301 304 305 305 306 306 305 304 302 300 302 309 315 311 309 313 316 313 311 312 313 312 311 311 310 310 311 312 312 311 313 313 310 311 311 311 313 311 309 310 314 317 314 312 313 314 313 313 312 311 310 311 312 312 312 311 310 310 311 312 313 313 312 313 314 314 316 314 312 313 314 314 314 313 313 314 317 319 320 320 320 320 318 315 317 323 324
300 303 306 306 307 307 308 307 305 302 301 307 313 313 311 310 311 314 315 314 313 312 310 309 309 311 312 311 312 311 311 314 312 310 311 311 312 314 313 310 309 313 316 315 314 313 311 312 314 312 309 308 310 311 310 310 310 308 308 311 312 313 315 313 312 314 315 315 316 313 313 313 314 312 311 314 317 319 319 320 322 322 321 321 319 321 323 323
302 305 306 306 306 307 307 308 306 301 304 310 313 311 312 312 310 311 314 313 311 310 309 308 310 312 312 313 314 311 311 312 311 312 311 310 312 313 312 311 310 311 313 315 316 314 310 313 314 310 308 308 308 309 308 309 311 309 308 311 310 311 317 316 311 311 313 315 315 313 313 313 313 312 311 314 318 317 316 317 321 322 322 322 323 322 323 323
304 306 306 306 306 306 307 309 305 301 306 311 311 313 313 310 308 309 312 312 309 309 309 309 310 311 312 315 315 313 312 312 311 312 312 310 312 311 311 312 310 310 312 314 317 315 311 315 315 310 309 308 306 307 307 306 309 310 309 311 309 309 314 316 313 311 312 315 314 311 312 314 313 314 313 314 315 315 313 314 319 323 322 323 323 323 323 324
304 305 307 305 304 306 307 307 303 303 308 309 310 315 312 307 307 310 312 311 308 308 309 310 310 310 312 315 315 312 311 312 312 313 313 311 312 312 311 312 310 309 310 311 314 314 312 314 314 311 309 308 307 308 308 306 306 308 309 309 309 311 313 313 313 314 312 313 313 311 312 313 312 314 314 314 314 314 314 313 317 321 321 321 322 323 323 323
304 306 308 305 304 305 306 305 303 306 309 306 308 312 309 307 309 312 313 311 308 308 310 309 308 309 311 311 313 312 311 313 314 313 313 312 312 312 311 311 310 308 309 310 312 313 313 315 315 311 308 307 308 309 310 309 307 307 308 307 308 311 313 312 313 314 314 312 311 312 313 313 313 312 313 314 314 313 314 313 315 319 321 321 321 321 321 321
304 308 308 304 304 305 304 305 305 307 308 306 307 308 307 309 312 313 314 312 309 309 310 310 307 310 313 310 309 311 312 315 314 312 313 313 312 313 311 309 310 308 308 309 310 314 314 313 314 313 308 307 309 309 309 310 309 309 310 309 310 310 309 311 312 310 311 312 311 312 313 313 313 310 311 313 312 312 313 312 314 318 320 319 319 319 320 320
305 310 307 304 306 306 306 308 307 307 310 307 306 308 310 311 312 314 315 312 310 308 308 310 308 310 313 311 309 310 312 315 315 313 314 311 311 315 311 308 308 308 308 309 311 315 314 311 315 318 312 309 309 306 305 306 306 309 311 311 311 310 310 311 311 308 309 311 311 312 313 314 312 309 310 310 310 312 312 311 314 318 320 319 318 318 318 318
308 309 306 304 307 307 308 310 308 309 314 310 307 308 311 313 312 313 313 309 310 309 307 309 310 310 311 310 309 310 311 312 313 314 315 311 311 313 310 308 309 308 310 310 311 316 318 318 317 314 309 308 307 305 305 305 304 307 309 308 309 312 314 313 312 311 310 310 310 312 313 314 311 308 309 309 311 313 312 313 317 319 319 317 317 316 316 316
311 309 305 305 308 308 310 312 311 311 314 311 308 307 308 311 311 310 309 308 307 308 308 308 308 309 310 308 307 308 309 310 311 310 313 314 311 309 310 312 312 312 312 312 313 316 320 321 314 309 308 308 308 307 306 305 305 307 308 306 307 310 313 316 317 317 314 310 311 312 312 313 310 308 308 309 311 313 313 315 318 318 317 315 314 313 313 313
309 307 307 305 305 307 309 310 310 310 311 311 309 306 305 308 307 306 308 307 306 306 308 309 307 307 307 307 308 308 307 310 310 308 310 314 311 310 312 313 316 319 317 314 317 316 315 316 313 309 309 308 308 308 308 307 307 308 308 306 306 309 314 316 315 316 315 311 311 312 313 313 310 308 308 310 312 313 313 313 314 315 314 312 311 310 309 309
307 308 309 308 305 306 308 306 306 308 309 310 309 304 304 307 306 305 305 305 304 304 305 307 305 305 306 307 309 309 307 308 311 309 310 311 310 309 309 309 315 321 318 317 320 318 313 314 313 311 311 311 310 310 309 309 309 308 306 306 306 309 315 317 312 312 313 311 310 312 313 313 310 309 309 310 311 312 312 311 311 311 311 310 309 308 308 308
308 307 308 309 308 307 307 305 304 305 306 307 307 304 303 306 305 304 304 304 304 303 303 302 302 305 307 309 312 311 307 307 309 309 309 309 309 309 308 307 311 317 319 319 319 318 316 312 309 309 311 310 308 307 306 306 309 308 306 307 308 308 313 316 313 311 312 311 310 312 314 314 311 309 309 309 310 311 310 310 309 308 308 308 307 307 307 307
306 304 303 306 308 308 308 306 304 304 305 305 305 303 303 303 304 304 304 304 303 302 303 301 300 304 307 309 315 313 307 307 308 307 307 306 307 308 307 305 306 312 319 318 316 320 320 313 309 309 307 305 305 305 304 305 307 309 308 310 311 309 312 317 314 313 313 312 311 312 313 315 311 307 308 309 308 309 309 308 307 307 307 306 306 306 306 306
303 303 301 302 304 305 306 306 305 304 305 304 303 303 304 302 302 303 303 303 302 301 304 304 301 301 301 304 311 311 307 309 309 307 307 305 306 308 308 305 304 308 315 315 315 320 320 313 310 310 306 305 306 306 306 306 306 306 307 309 310 310 314 317 314 311 314 314 314 313 312 312 309 306 307 306 306 308 307 305 305 304 304 304 304 304 304 304
302 303 303 302 302 302 303 304 305 305 306 305 304 303 304 303 302 301 300 303 305 301 302 305 302 300 299 302 306 306 305 308 308 306 306 306 307 308 308 308 306 305 309 314 316 319 317 312 310 309 309 308 307 306 306 307 307 307 306 306 307 307 309 310 308 307 310 313 312 311 310 308 306 305 304 304 304 304 303 303 303 302 302 302 301 302 301 301
302 301 302 303 302 301 301 302 304 306 305 305 306 304 303 303 303 301 299 302 306 303 301 303 303 301 300 300 303 303 301 303 304 304 305 306 307 307 306 306 305 304 306 311 313 316 318 315 312 314 315 312 309 309 308 307 309 309 308 309 310 310 309 308 308 308 309 309 309 310 310 307 303 302 302 301 301 301 301 301 301 300 301 301 300 300 300 300
299 298 299 302 301 299 300 300 302 304 303 303 305 305 303 303 302 302 300 299 301 301 300 301 302 302 301 301 302 302 299 300 301 301 302 303 304 304 304 303 303 304 305 306 308 313 316 314 311 314 317 313 310 312 312 310 310 310 312 314 315 314 311 308 307 308 309 310 309 312 312 307 302 301 300 300 300 300 300 300 299 299 299 299 299 299 299 299
299 298 297 301 301 298 298 299 300 302 301 301 303 303 304 303 301 302 303 301 299 300 299 300 302 303 303 302 302 301 299 299 300 299 300 300 301 301 302 301 301 302 304 305 307 311 312 310 309 312 315 311 308 310 311 312 314 314 312 310 309 308 308 307 305 305 306 308 310 312 310 305 301 300 300 300 300 299 299 299 299 299 298 298 298 298 298 298
Wind_Speed
12 12 12 12 11 11 11 11 11 11 10 10 10 11 11 11 11 10 10 11 12 11 11 11 11 12 12 13 12 14 16 17 16 10 9 11 8 6 6 6 13 18 16 14 15 14 9 6 7 7 7 4 0 1 2 1 1 2 2 2 3 3 3 5 5 4 1 1 2 4 5 4 4 1 1 2 4 5 4 4 3 5 7 6 12 20 25 24
13 12 12 12 11 11 10 11 11 11 11 10 10 11 11 11 10 10 10 11 11 11 11 11 11 11 12 13 12 15 17 16 14 12 11 9 5 6 7 8 14 21 18 14 15 15 10 5 6 6 4 2 0 1 2 1 2 2 2 2 3 3 3 4 3 2 1 2 4 4 2 3 4 1 1 2 4 5 5 3 3 5 9 11 17 22 24 24
14 12 12 12 12 11 10 11 11 11 11 10 10 11 10 10 10 10 11 11 10 11 11 11 11 11 12 12 12 14 16 12 8 7 3 3 4 9 9 11 16 21 16 11 14 14 12 11 11 7 3 2 1 1 2 2 2 2 2 3 3 4 4 3 3 4 3 2 6 4 1 3 3 2 1 1 5 5 6 4 4 6 9 12 16 19 21 22
14 13 13 12 12 11 11 11 11 11 10 10 10 11 10 10 10 10 10 10 10 10 10 11 11 11 12 12 13 12 10 5 1 1 1 5 2 10 12 13 16 18 12 9 12 11 13 14 9 4 2 3 1 1 3 2 2 2 2 3 1 3 4 3 5 6 4 2 4 2 2 4 2 1 2 5 6 3 7 7 5 8 13 16 15 16 19 20
14 13 13 13 12 11 11 11 11 11 10 10 10 10 10 9 9 10 10 9 9 10 10 10 10 11 12 12 13 10 5 2 1 1 2 4 2 10 14 15 17 15 12 12 13 11 12 10 5 3 2 3 2 3 3 2 2 2 2 2 2 4 4 4 2 4 3 2 2 2 4 4 1 1 3 7 6 1 3 4 3 10 17 18 18 17 17 17
15 15 14 13 13 12 11 11 11 10 10 9 9 9 9 9 9 9 9 9 9 9 9 10 10 11 11 12 11 6 2 1 2 3 3 3 3 11 16 18 17 14 15 15 13 10 8 4 4 5 2 2 4 4 3 1 2 3 2 1 3 4 4 4 0 3 3 1 3 2 3 2 1 2 2 7 5 1 2 3 6 13 17 20 20 17 16 17
16 16 15 14 13 12 12 11 11 10 10 9 9 9 9 8 9 9 9 9 8 8 8 9 9 10 10 11 7 2 1 4 4 4 5 3 5 13 18 19 17 16 16 14 11 6 4 4 4 4 4 3 3 4 3 2 2 4 3 2 4 4 6 5 1 2 2 3 3 1 3 3 3 2 2 7 5 1 3 2 10 15 18 19 19 17 16 18
16 16 16 15 14 13 12 12 11 10 9 9 9 8 8 8 8 8 8 7 8 8 8 7 8 9 10 9 3 1 1 4 5 5 5 1 9 16 20 19 16 17 16 13 10 6 5 5 5 3 3 3 3 5 4 3 3 4 5 2 2 4 6 4 3 5 4 4 2 2 4 3 4 2 2 6 2 2 2 7 13 16 18 17 17 17 16 16
16 16 16 16 15 14 13 12 11 10 10 9 9 8 8 8 8 8 7 6 7 7 7 6 7 7 8 6 1 1 1 2 7 5 3 1 12 19 21 18 17 17 14 11 10 8 6 4 4 4 3 2 4 5 4 4 4 4 5 3 3 3 4 2 4 5 3 3 3 4 4 0 2 2 3 3 2 4 7 10 13 16 18 17 16 17 16 16
16 16 16 16 16 15 14 13 11 11 10 9 9 8 8 8 8 7 7 6 6 6 6 6 6 5 6 3 0 1 0 4 10 7 4 2 13 20 20 17 19 18 12 8 7 7 5 4 5 3 3 3 3 4 3 4 2 3 4 3 4 4 3 2 4 3 1 3 5 6 4 2 1 2 3 1 4 7 9 10 12 15 16 16 15 15 15 15
17 16 16 16 16 15 15 14 12 11 10 9 9 8 8 7 7 7 6 5 5 5 5 4 4 3 3 2 0 2 2 2 10 9 4 2 11 19 20 17 20 19 13 7 6 8 3 2 5 1 1 3 3 3 2 3 1 2 3 2 4 3 4 3 4 3 1 3 5 6 3 2 3 3 2 3 6 8 11 11 13 14 14 15 15 14 13 12
17 17 17 16 16 15 15 15 12 11 10 9 8 8 7 7 6 6 6 5 4 4 3 1 2 2 1 0 3 5 5 5 9 8 2 3 7 14 18 17 19 18 15 8 6 10 3 2 5 1 1 3 3 2 2 2 1 1 2 2 2 3 4 4 2 2 2 2 4 5 3 1 3 3 1 4 8 9 11 13 13 13 13 13 14 12 11 11
18 17 17 17 16 15 15 15 14 11 10 9 8 8 7 6 5 5 4 4 3 3 2 1 1 1 1 2 4 3 6 8 9 6 2 5 5 9 14 16 16 15 14 9 6 8 6 2 2 2 2 2 1 1 1 1 0 1 2 1 2 1 2 2 0 1 3 2 4 6 4 3 5 4 2 5 9 11 11 12 12 12 11 12 13 11 11 11
18 18 18 17 17 16 16 15 15 13 10 9 9 8 7 6 4 4 3 3 3 2 1 1 1 2 1 5 5 5 8 9 9 7 6 7 6 5 9 14 14 11 9 7 4 5 9 5 1 2 1 1 1 0 0 1 1 1 2 1 1 2 2 1 1 3 4 2 3 6 5 3 5 4 4 6 10 11 10 12 12 12 11 11 12 12 11 10
18 18 18 18 17 17 16 16 15 14 11 9 8 8 7 6 4 3 2 2 3 1 3 1 0 1 2 6 5 4 5 5 6 6 7 10 9 6 9 12 11 9 8 6 3 2 8 7 0 1 1 0 1 0 0 1 2 1 2 2 0 2 2 1 2 5 4 2 2 6 4 4 5 1 3 6 10 10 9 11 12 13 13 11 11 12 11 9
18 18 18 18 17 17 17 16 16 15 12 9 8 8 7 4 2 2 1 1 1 2 4 2 1 1 2 3 4 4 4 4 4 3 6 12 9 6 11 12 8 7 5 4 3 3 5 5 1 1 1 1 2 2 2 1 1 1 1 2 1 2 2 1 2 3 3 2 2 5 3 2 3 1 1 8 11 10 9 11 13 13 12 12 11 11 10 9
18 18 18 18 17 17 17 16 16 17 13 10 8 7 4 2 2 1 1 1 1 3 4 1 1 1 3 4 4 3 3 3 3 2 8 12 7 10 15 8 5 6 4 2 2 2 2 2 1 0 1 1 1 2 3 3 2 1 1 1 1 2 2 1 2 1 1 2 3 4 4 5 3 2 1 9 12 10 10 11 13 13 12 11 11 11 11 9
18 18 18 18 17 16 16 16 16 16 14 10 7 5 3 4 3 1 2 3 2 3 3 1 1 1 2 3 3 2 4 5 2 1 9 11 7 13 13 5 6 8 4 2 1 1 0 0 1 1 1 1 1 3 4 3 3 4 2 2 1 2 2 2 2 1 2 2 3 4 5 9 8 1 2 8 11 10 9 9 11 12 11 11 11 11 11 11
18 18 18 18 17 17 16 16 16 16 14 10 5 4 2 3 3 2 2 2 3 2 2 2 3 2 3 2 4 6 7 5 3 2 10 13 10 10 7 6 9 7 4 3 1 1 1 1 1 2 2 2 4 4 4 3 3 5 3 2 2 2 3 3 3 1 2 3 5 7 8 10 9 5 4 8 10 10 8 8 9 10 10 10 10 11 11 12
18 18 18 17 17 17 16 15 15 15 14 8 3 2 1 1 0 1 1 3 5 5 6 4 6 4 5 5 5 4 3 1 1 3 11 14 12 8 3 4 5 2 2 2 2 2 1 2 2 3 4 4 5 3 2 3 3 4 3 2 2 2 3 4 2 2 2 3 4 5 8 9 9 5 3 6 9 10 10 10 10 11 11 11 11 12 12 12
19 19 18 17 17 16 16 15 15 15 12 6 2 0 1 0 1 2 1 5 8 8 10 9 8 7 7 4 1 3 2 1 1 2 11 13 12 9 1 2 3 2 1 0 3 2 1 3 3 5 5 3 3 4 4 4 3 2 2 1 2 3 4 3 1 1 2 3 2 1 5 9 8 2 2 7 10 11 13 12 12 13 13 11 12 13 13 11
20 19 18 18 16 16 16 15 15 14 9 4 1 2 2 1 1 3 2 5 7 10 13 10 5 8 9 7 5 0 2 2 2 0 9 10 6 5 2 2 3 3 1 0 3 2 2 4 6 4 4 5 4 4 5 4 3 2 1 1 2 2 4 4 1 1 1 2 2 1 3 6 4 1 0 7 10 7 9 9 8 12 13 12 13 12 12 11
20 19 19 18 17 16 15 15 15 12 5 2 3 3 2 2 4 6 2 4 7 6 8 8 5 7 7 6 8 7 4 4 3 2 9 10 3 3 4 3 3 3 2 3 3 3 2 3 4 4 7 6 4 3 5 4 2 2 2 2 2 1 1 2 2 2 1 1 2 2 2 2 1 0 1 4 4 2 3 5 4 8 12 12 12 11 12 13
20 20 19 18 18 15 13 16 13 5 3 6 8 5 1 5 8 3 3 3 6 2 4 7 5 6 6 4 8 12 6 4 4 3 10 11 4 3 4 3 3 3 2 4 4 4 4 0 3 6 6 5 4 4 5 4 3 2 3 4 4 3 4 3 0 1 1 1 0 2 3 1 2 1 2 2 2 3 1 4 5 7 10 10 10 11 13 13
20 20 19 19 19 15 14 14 6 1 7 10 8 4 4 12 7 3 3 2 3 3 2 4 3 5 6 5 10 11 4 3 5 4 10 11 7 5 3 2 2 3 3 4 4 4 4 2 5 6 3 4 4 3 5 5 3 2 5 9 9 5 3 3 2 1 2 2 1 1 2 3 2 0 2 2 3 6 2 4 8 8 9 11 11 12 13 12
21 20 19 19 19 17 13 6 2 4 10 8 5 2 10 16 5 7 2 2 2 3 1 2 1 5 6 5 7 6 4 3 4 5 10 11 10 5 3 2 0 2 4 4 2 2 1 3 3 3 3 4 4 3 5 6 4 1 4 8 8 4 1 3 1 1 2 1 2 2 1 2 1 2 1 2 3 7 4 4 8 8 9 11 11 11 11 11
22 21 20 18 18 16 8 3 5 7 6 4 3 5 14 13 2 8 1 2 2 2 1 0 1 5 5 5 7 5 3 2 3 6 7 10 9 2 2 4 1 2 3 3 2 1 3 4 2 2 3 4 4 4 6 8 6 2 2 5 8 6 5 4 3 2 1 1 1 1 1 2 2 2 1 2 4 6 6 7 7 8 9 10 10 11 11 10
24 23 21 19 17 12 7 8 8 5 6 6 6 9 14 7 6 5 1 1 1 1 1 0 1 4 2 3 6 3 1 2 5 4 3 8 7 1 2 6 4 4 3 3 4 1 3 4 4 4 3 2 4 3 7 11 5 1 2 5 6 5 4 3 2 2 1 1 3 1 3 1 2 0 1 2 3 5 6 8 8 9 9 9 9 10 10 10
27 24 22 20 17 12 8 9 8 7 8 8 8 12 11 0 6 1 2 0 1 1 1 1 2 3 3 3 5 4 2 1 2 1 2 5 4 1 2 5 4 4 2 2 4 0 1 3 4 5 2 3 3 1 7 10 3 1 5 6 5 4 3 2 1 2 1 3 4 2 4 1 3 0 1 1 1 1 1 3 6 8 8 9 9 9 10 9
29 26 22 19 16 11 6 9 13 11 9 8 9 12 6 3 2 1 1 2 2 0 1 1 1 1 4 5 4 4 1 1 2 3 3 3 2 2 1 2 4 3 1 1 2 1 1 1 1 3 3 2 3 3 2 3 2 4 5 6 5 3 2 1 2 1 1 3 1 3 5 1 2 2 1 1 1 1 3 3 1 2 6 8 8 8 9 8
30 27 22 16 13 9 3 6 9 6 2 5 10 8 0 2 1 2 3 3 2 0 1 0 0 2 6 6 3 3 2 1 2 5 4 3 3 2 1 2 3 2 1 1 2 1 1 0 1 2 1 3 5 5 2 1 2 3 2 3 4 1 1 1 1 0 3 3 1 3 3 2 2 2 0 2 2 2 3 5 5 5 5 6 6 7 7 7
30 26 21 16 12 12 10 8 6 3 2 6 10 3 2 1 1 3 2 3 1 0 1 0 1 1 3 3 2 3 3 1 2 5 5 4 4 4 4 4 3 2 2 3 2 1 1 3 2 2 1 3 3 4 3 1 1 1 2 3 3 1 1 2 1 1 3 2 1 3 1 1 1 0 2 5 5 5 4 5 7 8 8 6 6 5 5 5
27 24 18 13 9 13 15 13 12 11 11 9 5 2 3 1 3 4 3 2 1 1 1 1 2 1 2 2 2 2 1 2 3 3 2 2 4 4 1 1 3 3 1 2 1 0 2 2 1 1 2 3 5 5 3 3 4 4 4 4 4 3 2 2 2 1 2 1 1 2 1 2 2 1 4 6 7 8 7 6 6 7 8 8 7 4 3 4
25 20 12 8 6 8 11 12 11 11 10 6 1 3 3 3 3 2 3 3 2 2 1 0 2 2 2 2 2 3 2 3 4 4 3 3 3 4 2 1 2 1 1 2 2 2 2 2 2 3 1 3 7 6 3 4 4 3 1 2 4 4 2 3 3 3 3 1 2 1 1 2 3 2 4 6 6 6 6 6 5 4 4 5 4 1 4 7
23 12 4 7 9 11 12 9 8 7 5 2 2 2 4 4 2 1 2 2 1 2 3 1 1 1 1 1 2 2 2 3 3 4 4 4 4 3 3 4 5 2 2 3 2 1 1 2 2 1 1 2 5 3 3 4 4 1 1 2 2 3 3 1 0 1 1 1 1 2 2 1 2 2 3 3 3 5 8 9 8 6 5 3 3 5 7 8
19 6 3 9 16 17 14 7 6 9 7 3 2 3 3 3 2 2 1 0 1 1 4 2 1 1 1 1 1 0 1 0 3 3 2 3 3 3 3 4 5 6 5 3 2 1 1 2 1 1 1 1 3 2 3 1 2 3 2 3 1 0 3 3 2 2 1 3 2 0 1 0 2 3 1 1 2 5 9 10 9 9 7 6 6 7 8 9
17 4 3 13 23 20 12 3 11 12 6 2 4 4 2 2 3 2 0 0 1 1 1 1 1 0 1 1 1 1 1 1 1 2 3 2 2 3 3 2 4 9 8 4 2 2 2 1 1 1 2 1 2 2 5 3 1 3 3 5 4 2 2 2 2 2 0 4 2 1 1 1 3 3 1 3 4 7 9 9 8 9 9 7 6 6 7 8
12 3 2 14 25 19 6 7 16 13 3 1 4 3 2 2 2 2 0 1 1 1 1 1 1 1 0 1 1 1 0 2 1 2 3 2 2 3 3 3 4 7 6 3 1 1 1 2 1 0 1 2 2 2 5 3 3 1 2 5 3 2 2 2 2 2 4 3 1 2 1 2 2 0 5 7 8 10 10 9 8 9 9 7 5 5 5 6
7 1 1 16 24 11 4 12 14 7 1 3 4 2 2 3 2 2 2 1 1 1 1 1 1 1 0 1 1 1 1 2 2 2 2 2 2 1 1 1 3 2 2 4 4 1 1 2 2 0 1 1 1 1 3 3 3 3 3 3 1 1 2 2 1 2 4 4 2 2 2 2 1 2 6 8 10 10 10 8 7 8 8 7 6 6 6 7
3 1 2 16 17 9 10 9 6 2 2 3 2 1 1 2 2 2 3 2 1 1 1 1 1 1 1 1 1 1 1 0 2 2 2 2 2 0 2 1 1 1 0 3 3 1 2 1 2 0 1 2 1 0 2 3 2 3 4 4 2 1 1 1 1 1 2 3 3 3 3 2 2 3 5 8 9 9 8 6 5 6 8 7 7 6 6 6
2 2 4 15 7 6 5 1 2 1 2 0 1 2 1 1 1 2 1 2 2 1 0 2 2 1 1 1 1 1 1 1 1 1 2 2 1 0 3 3 0 2 2 3 3 2 1 2 2 0 0 1 0 2 1 2 2 2 3 3 3 3 3 4 3 1 0 1 2 3 4 2 3 3 5 7 8 8 7 4 2 6 8 8 8 8 8 7
2 2 7 15 2 3 6 1 1 2 2 0 1 2 2 1 1 2 1 1 1 1 1 1 2 2 2 2 2 2 1 1 1 1 1 2 1 1 4 5 1 2 2 2 1 1 1 2 2 1 0 1 2 1 1 1 1 1 1 1 2 2 2 4 4 3 2 1 1 1 3 2 3 4 4 5 6 7 5 2 5 8 8 8 9 9 9 8
2 1 7 16 3 6 3 2 0 2 0 2 2 1 2 1 1 2 1 2 1 0 1 1 2 1 2 1 2 2 2 2 1 0 1 2 2 0 4 6 3 2 1 1 1 0 1 2 2 2 0 2 2 2 1 2 2 1 2 2 1 1 1 1 2 2 3 3 2 2 3 2 3 4 5 6 6 8 7 5 6 8 8 9 9 9 8 9
2 2 3 16 14 4 2 2 1 1 2 4 3 3 4 1 2 3 1 2 3 2 1 1 1 1 1 0 0 1 1 2 1 2 0 2 1 1 4 6 3 2 2 0 1 1 1 1 1 3 3 1 1 3 2 0 0 1 1 1 0 3 4 3 2 1 2 2 2 3 3 2 3 4 6 8 9 9 10 8 7 8 8 8 8 9 9 10
2 0 2 10 17 11 4 1 1 1 2 3 3 5 6 2 2 3 2 4 4 2 1 1 1 2 2 1 1 2 2 0 1 2 1 2 2 2 5 6 3 2 2 2 3 2 1 1 1 2 5 5 4 3 2 1 0 1 1 2 1 3 4 3 2 2 3 3 2 2 2 4 3 5 9 10 10 10 10 9 9 9 9 9 9 9 9 10
1 2 2 4 7 7 2 1 2 1 1 1 2 5 6 4 2 2 3 5 4 3 3 3 3 2 2 2 1 2 4 2 1 2 2 2 2 2 4 4 2 4 6 7 6 3 3 3 3 3 1 1 1 0 2 2 0 1 2 3 3 2 1 3 3 2 3 5 3 1 2 6 3 7 9 9 10 9 9 9 9 9 9 9 9 10 10 10
1 1 2 3 3 3 3 4 6 4 3 1 2 5 7 5 3 3 3 4 5 4 3 4 6 4 2 2 1 2 4 3 3 3 2 2 2 2 4 2 4 5 2 4 2 2 5 3 3 5 6 4 2 1 2 2 3 3 3 3 4 5 2 2 3 1 3 5 4 1 3 6 3 6 7 7 8 8 8 8 8 8 8 9 10 11 12 13
2 1 1 2 2 3 3 5 6 7 7 5 3 4 8 8 7 5 4 3 4 5 3 3 8 9 4 2 1 2 4 3 4 4 2 3 2 3 3 2 4 8 5 2 2 2 5 2 1 3 5 5 6 5 5 5 5 5 5 5 6 7 5 3 3 2 1 2 3 5 7 6 5 5 5 6 7 7 8 7 7 8 9 10 12 13 14 14
2 1 1 1 1 2 3 5 6 7 9 8 4 6 9 10 10 6 5 3 3 6 5 3 6 10 8 4 2 3 4 3 4 4 3 3 3 2 3 2 2 7 6 3 2 1 4 1 0 2 4 7 9 8 8 8 5 6 8 8 7 8 9 8 6 5 5 6 6 11 12 9 5 4 5 5 5 6 7 7 9 10 11 12 14 14 14 15
2 1 2 1 2 3 3 4 4 4 7 7 4 6 8 9 9 7 6 5 4 5 6 4 4 6 6 8 7 6 4 4 2 2 2 2 3 2 2 1 2 6 6 3 1 1 2 2 2 2 4 5 7 7 7 8 6 5 6 5 5 7 9 8 6 6 7 8 7 10 12 8 3 4 5 4 4 6 9 10 11 10 10 12 14 14 14 15
2 1 0 1 2 4 4 3 4 2 4 5 4 5 6 8 10 7 3 5 5 5 6 5 5 4 2 8 9 6 4 4 4 5 4 2 2 2 2 1 2 5 5 3 2 2 2 4 3 3 2 1 3 4 5 6 6 4 3 3 4 4 4 4 4 2 2 6 8 7 7 5 4 5 6 5 6 9 11 11 10 9 10 13 14 14 14 14
3 0 1 1 1 4 3 3 4 3 3 4 4 4 3 5 9 7 2 3 5 7 5 6 4 2 3 9 9 7 7 7 8 7 6 5 4 3 2 2 1 1 2 3 2 1 2 5 5 4 3 2 1 2 3 4 3 4 3 1 3 3 3 3 4 4 3 3 4 2 4 7 7 7 7 8 9 11 10 8 8 9 10 12 12 12 13 12
Wind_Direction
336 332 329 329 326 322 318 317 318 316 315 314 315 314 315 317 316 318 321 320 318 313 313 315 316 319 317 316 318 312 307 307 305 290 251 267 282 233 216 191 175 161 151 146 150 146 135 145 144 142 148 138 293 154 151 145 139 178 186 203 218 189 178 191 193 187 169 2 0 2 353 3 22 79 144 131 105 115 129 62 52 66 49 80 110 120 124 125
338 334 329 328 327 322 318 317 318 317 315 314 314 313 313 315 316 319 320 319 317 315 316 317 318 320 317 319 320 310 308 309 297 270 253 272 271 221 207 176 168 165 157 153 158 153 145 154 148 140 139 151 162 127 170 167 180 184 148 221 222 181 193 202 194 202 227 331 333 342 352 349 336 229 195 192 124 138 159 91 80 89 79 103 117 120 123 129
341 337 330 329 329 324 320 319 319 317 314 314 313 312 313 314 315 317 319 317 316 316 315 318 318 317 318 320 317 312 310 309 291 254 261 1 211 202 185 169 170 169 165 161 164 167 168 159 153 146 120 148 111 148 171 157 191 184 180 233 216 201 244 217 202 240 240 304 316 330 326 327 325 223 246 169 138 167 192 166 159 142 123 125 125 126 131 137
344 338 333 332 331 326 322 319 319 317 312 313 312 312 313 313 314 315 318 319 319 317 315 319 317 315 320 319 317 318 310 294 277 221 52 37 159 183 173 163 165 170 170 161 158 165 161 148 145 135 118 147 62 163 172 171 189 166 197 232 171 175 249 223 197 236 247 256 288 323 308 322 20 232 247 150 147 206 221 210 195 158 148 143 137 139 142 143
348 343 339 335 332 328 324 320 319 316 312 312 309 309 312 313 315 314 316 319 320 317 317 318 317 321 319 316 320 321 309 253 147 331 0 26 125 171 167 158 156 162 164 157 148 144 142 134 130 117 113 150 143 174 177 172 161 164 204 237 142 153 242 260 195 211 222 217 253 325 327 328 45 227 198 177 182 195 225 235 181 148 154 153 150 149 148 149
351 348 345 340 336 331 325 321 318 315 312 309 307 309 310 312 313 313 315 316 316 314 317 320 320 324 316 315 323 319 298 282 288 298 320 357 151 165 163 157 152 152 152 149 143 144 137 118 149 150 132 134 161 177 165 159 181 211 210 216 216 188 240 274 15 174 165 196 272 311 323 338 347 322 180 210 225 80 316 272 149 149 158 157 155 156 155 155
354 352 349 346 341 334 327 322 318 316 312 308 307 308 308 311 310 310 314 316 317 316 318 321 322 322 321 324 318 302 291 276 298 311 312 319 165 163 161 157 154 151 149 144 138 144 133 134 163 155 140 132 176 186 154 140 188 231 209 206 228 200 229 251 270 236 187 235 269 315 294 295 269 299 151 218 235 33 327 202 146 147 154 157 159 161 159 159
354 354 352 350 345 339 332 325 322 318 313 310 308 309 310 310 309 309 313 315 318 321 320 321 328 325 332 344 322 278 247 263 317 329 319 292 169 167 161 157 159 156 154 155 152 151 145 153 162 159 160 143 181 177 153 158 180 224 213 207 215 198 231 248 269 269 262 247 229 206 264 269 212 193 186 225 239 55 108 136 141 147 154 161 164 164 163 161
354 354 354 352 348 345 339 332 327 320 316 313 309 309 309 309 311 311 312 317 318 319 322 322 326 325 336 354 337 283 244 318 353 352 355 146 173 171 166 164 168 164 157 159 158 157 161 169 173 187 186 132 174 170 161 198 199 211 203 201 216 239 257 258 267 266 278 254 172 207 251 142 171 190 232 254 60 114 137 136 145 152 159 165 167 169 168 164
355 355 354 353 351 348 345 338 331 325 320 313 310 308 308 308 308 311 311 317 319 315 319 322 320 322 337 351 234 311 306 24 14 22 42 145 175 172 174 174 172 168 157 152 154 157 171 193 180 188 170 122 167 162 162 194 174 175 182 211 230 269 296 261 264 264 318 264 190 223 256 90 141 214 231 42 95 141 134 139 157 159 164 167 169 172 170 169
356 356 355 354 353 351 348 343 334 328 321 314 311 306 305 307 306 310 310 311 317 313 313 324 331 335 0 16 213 264 244 356 3 11 43 153 181 182 186 182 177 172 158 145 170 175 174 182 170 161 164 154 159 154 193 192 124 154 168 236 248 291 281 229 264 264 267 258 196 213 242 99 136 209 233 117 142 152 139 151 167 166 168 168 171 172 171 169
357 357 356 356 354 351 349 346 339 329 322 317 311 307 306 304 304 305 306 314 316 313 319 333 330 339 24 330 218 234 251 293 330 345 44 164 192 196 196 188 184 183 172 163 191 193 173 125 170 158 131 161 159 155 196 175 112 148 152 260 276 328 268 209 260 260 202 236 169 177 224 206 192 205 143 137 160 153 147 159 167 171 170 169 173 170 172 167
358 359 359 357 355 353 350 347 344 334 324 320 313 310 306 299 300 298 304 316 300 302 335 29 331 343 31 254 224 255 288 288 300 308 206 187 199 201 196 187 186 190 187 176 178 192 186 152 145 109 132 165 160 139 142 122 223 168 130 284 290 318 258 185 74 145 181 212 155 177 233 227 218 221 161 156 166 153 151 163 169 174 171 172 174 172 176 167
357 359 359 358 357 355 353 349 346 340 328 324 319 312 310 307 301 299 310 305 280 276 216 115 11 92 111 263 261 295 297 290 283 260 213 192 175 161 177 180 180 184 183 163 135 184 200 203 55 99 165 262 14 308 266 41 29 140 141 148 318 244 206 158 135 161 176 178 154 197 236 232 234 228 170 172 171 160 159 168 171 175 174 176 173 173 178 169
356 358 357 357 356 355 355 351 348 343 332 325 321 315 311 308 303 304 313 292 278 222 159 147 0 101 291 278 289 304 283 292 281 246 222 199 172 138 158 169 171 176 173 163 117 138 194 198 179 104 185 344 111 195 253 49 55 54 184 177 136 222 227 303 206 197 200 86 141 208 226 249 248 244 153 181 180 171 167 170 176 178 178 176 171 176 176 165
355 355 354 354 353 354 353 352 350 346 338 327 320 316 307 308 330 337 343 310 281 174 160 138 148 176 272 284 333 322 272 283 296 270 210 196 190 150 146 149 152 161 164 178 153 94 152 164 100 29 98 132 157 141 134 142 106 45 240 201 165 191 234 308 173 219 251 99 164 224 237 254 247 357 173 187 184 179 171 174 181 181 181 178 173 178 176 162
352 351 351 351 351 351 349 350 350 346 344 332 322 319 317 6 50 30 96 142 274 171 164 129 113 191 263 281 311 308 278 289 302 280 182 186 199 152 138 133 135 138 131 152 162 103 116 142 57 51 71 69 154 155 162 184 184 165 239 186 180 202 207 248 182 174 273 172 192 222 235 240 238 27 157 186 186 186 179 177 184 185 183 180 177 181 182 172
350 348 348 348 348 348 346 347 346 346 345 336 340 1 29 76 98 99 117 141 118 130 157 147 154 216 262 268 297 294 300 300 291 193 165 170 174 149 138 130 129 126 122 97 96 158 129 0 329 152 118 75 164 181 183 192 184 174 178 168 180 220 206 258 256 139 132 210 210 191 221 241 240 258 159 188 191 195 186 175 185 191 187 183 183 186 187 184
348 347 347 345 345 345 344 343 341 342 342 337 357 28 59 107 127 135 118 131 139 178 249 203 185 280 305 256 286 294 297 292 257 193 157 160 163 149 124 119 130 127 142 138 127 180 161 128 154 176 182 183 185 193 188 173 150 152 158 161 171 213 232 253 256 220 173 213 219 205 216 233 234 229 193 191 193 197 189 174 184 193 192 191 190 191 191 191
346 346 344 343 343 342 341 339 336 337 339 339 358 22 78 121 154 171 157 202 211 247 281 226 190 250 290 271 287 298 292 273 257 176 161 165 162 153 104 98 129 118 131 150 144 153 194 165 178 201 196 196 199 188 139 118 113 127 132 153 190 235 257 250 237 285 254 227 239 219 222 232 234 229 181 183 192 198 195 186 189 192 194 196 195 196 195 195
344 344 343 342 340 340 339 334 332 331 334 346 6 303 274 138 5 333 283 238 227 229 251 235 199 223 249 246 293 48 38 325 317 153 165 167 157 157 162 53 142 143 117 180 122 111 212 180 212 222 194 179 175 145 120 115 103 119 154 188 229 221 250 261 176 331 277 236 259 172 224 236 232 229 128 176 191 201 201 192 191 193 193 197 198 200 198 193
342 342 341 341 338 338 337 330 328 325 324 348 13 258 270 195 173 318 298 275 253 215 230 240 221 245 247 240 245 206 30 274 288 213 162 159 160 174 164 88 160 152 96 154 126 120 180 201 230 210 143 104 99 131 137 127 121 125 151 228 244 204 257 276 140 91 245 226 253 169 222 246 242 302 230 198 197 208 212 204 201 193 192 198 200 200 198 191
340 340 339 339 337 338 336 327 324 318 301 296 269 243 232 244 296 301 252 282 283 214 215 228 218 239 237 244 233 192 188 210 211 222 170 163 166 179 150 133 158 132 135 175 166 171 174 227 236 155 138 127 103 126 136 124 147 166 170 214 242 180 230 237 135 86 64 337 284 176 180 280 322 38 196 208 215 262 237 215 219 202 201 204 202 203 200 195
339 339 338 337 336 338 336 325 319 315 304 297 274 239 249 318 315 295 185 256 286 261 216 207 200 220 221 228 188 173 183 196 188 203 176 166 136 146 163 141 144 144 172 178 162 195 211 219 114 123 148 156 122 137 158 162 187 206 209 214 238 228 212 229 0 45 132 64 338 167 151 106 37 180 153 112 219 249 244 200 203 206 209 205 199 206 206 202
338 338 336 335 335 338 336 324 307 317 322 301 266 230 343 336 327 184 177 298 275 280 247 188 198 215 197 169 166 168 164 185 211 199 171 168 145 141 161 128 173 186 168 149 145 218 238 153 137 132 138 158 140 162 191 190 189 218 218 215 228 230 210 242 328 18 196 162 122 232 180 139 47 197 159 60 208 210 207 206 206 198 200 202 200 207 207 205
339 337 334 332 333 336 339 324 238 316 318 292 235 255 334 336 325 171 164 352 268 282 266 165 228 190 166 151 163 161 146 184 219 171 164 171 155 139 147 127 277 199 156 150 159 238 223 125 149 147 137 167 176 208 207 189 181 214 214 207 213 220 225 244 256 224 221 154 86 318 243 150 93 131 121 353 217 197 197 213 214 200 196 203 204 206 205 201
339 336 333 329 331 337 339 292 285 307 298 274 260 303 327 334 205 170 166 348 275 280 162 70 291 178 171 171 175 166 158 152 128 148 170 174 161 112 176 165 154 173 152 153 186 216 147 125 116 119 119 157 193 228 201 179 176 191 186 173 175 193 217 215 196 199 266 19 124 340 335 151 143 133 117 288 199 183 202 212 216 214 205 205 203 201 202 199
340 335 330 325 325 327 304 279 289 275 253 282 297 308 327 336 164 167 357 349 291 296 162 8 117 168 162 158 186 211 319 120 133 163 187 173 168 45 189 195 187 169 154 180 201 183 138 170 171 151 126 172 207 221 177 175 187 255 139 143 152 174 190 168 172 166 38 258 189 84 0 174 151 82 289 247 183 172 201 209 213 220 214 207 206 202 201 201
339 334 327 323 322 318 295 262 253 255 276 292 302 313 327 99 159 125 44 213 280 22 99 98 134 155 107 121 216 263 337 46 135 139 128 164 180 47 168 192 158 149 135 211 219 232 132 210 179 162 180 216 212 168 170 179 194 151 134 108 93 90 91 106 152 129 99 239 204 50 353 215 151 179 300 61 110 144 255 220 208 221 225 215 209 206 204 200
337 331 325 323 316 309 291 251 260 281 287 287 308 319 326 142 140 54 130 250 277 46 80 167 171 135 125 140 224 259 285 342 72 110 112 145 150 51 97 126 103 141 152 335 251 247 14 345 146 186 219 189 116 82 155 180 117 155 147 101 92 75 49 75 41 49 177 221 202 27 347 296 156 171 206 95 73 345 320 316 265 237 239 229 216 209 206 199
334 330 326 317 298 286 262 250 279 301 248 300 328 326 330 108 57 132 194 253 262 314 28 119 29 117 149 160 202 227 217 343 103 139 145 144 139 103 128 137 100 124 172 279 255 273 355 257 209 240 201 122 107 90 57 19 103 162 156 116 130 76 26 100 32 322 201 200 71 28 350 278 198 159 94 316 324 329 300 306 323 318 280 254 239 222 210 201
331 331 325 309 282 254 239 243 268 267 237 327 341 341 135 114 217 191 239 285 281 0 48 212 294 132 164 181 190 191 186 171 151 154 152 156 167 170 182 182 163 154 201 224 222 351 267 220 266 312 211 166 141 107 92 86 180 180 136 141 166 157 154 196 212 211 216 218 40 24 345 250 208 107 314 311 328 345 326 304 305 306 301 287 266 241 212 191
331 332 324 311 276 248 258 269 263 261 277 303 335 56 100 163 216 207 231 272 5 19 98 196 304 337 157 178 188 180 171 182 182 172 153 140 168 186 194 150 167 167 180 193 175 216 228 237 295 258 219 191 179 171 159 171 196 189 162 161 175 156 153 191 187 221 249 229 64 15 299 197 139 84 305 311 331 341 332 314 299 289 287 284 280 265 182 150
334 333 330 336 325 293 304 301 271 260 269 278 310 94 130 191 230 209 212 247 299 324 330 1 333 330 168 193 221 183 191 215 177 163 164 145 167 199 198 165 188 155 85 150 173 182 203 235 205 192 188 169 186 196 167 141 162 180 152 154 177 170 174 206 199 197 210 170 88 106 212 192 142 127 315 314 325 343 350 343 333 307 285 275 283 298 122 122
337 337 358 21 2 343 336 316 271 240 218 186 105 136 176 199 237 202 202 248 282 318 329 348 0 289 195 266 290 197 203 231 170 154 166 161 175 190 179 192 198 164 132 180 206 139 195 259 243 243 354 171 195 192 112 118 135 131 91 146 186 190 157 138 154 176 199 164 138 184 216 305 116 137 318 325 352 17 20 13 9 6 8 51 83 93 108 115
341 354 81 15 354 341 333 305 225 198 187 148 138 191 200 214 217 174 180 180 106 337 317 321 77 224 246 269 282 41 50 195 158 166 180 177 190 184 179 199 187 177 173 175 193 158 163 260 286 12 101 187 256 194 122 180 161 134 177 176 176 67 119 117 115 41 352 201 178 142 247 257 141 158 187 109 72 41 25 17 21 20 24 54 77 97 116 124
344 16 88 2 349 340 329 252 178 171 172 159 180 199 220 223 196 178 213 30 106 56 338 315 354 268 273 274 276 22 43 121 152 191 184 175 199 179 188 213 180 190 195 178 204 217 198 245 335 57 124 49 313 138 89 19 105 141 183 164 131 66 81 112 151 93 179 206 187 66 339 253 179 165 46 4 7 14 9 9 25 30 32 50 66 95 114 117
342 14 85 358 346 335 318 177 163 155 139 191 194 210 218 206 197 190 232 43 97 45 51 240 303 3 333 274 321 8 341 182 165 186 179 188 221 164 169 197 181 199 205 170 186 229 195 252 309 302 163 33 339 147 110 56 24 45 149 137 133 189 164 150 162 156 181 197 172 141 206 272 206 93 352 337 338 347 348 355 22 32 29 38 49 65 65 54
349 33 56 357 351 348 132 151 152 140 118 190 196 212 202 215 257 230 210 86 112 85 5 233 269 357 326 275 307 325 296 197 170 169 178 194 215 154 140 202 166 207 227 173 178 147 127 242 251 179 307 353 354 219 172 139 62 57 119 124 38 281 169 165 158 167 187 186 158 157 193 218 172 3 325 309 322 333 331 339 12 34 34 32 33 37 38 40
2 118 27 359 10 66 107 135 144 110 168 184 205 208 180 233 262 246 216 212 189 201 269 203 175 311 278 296 280 273 332 210 168 182 187 171 178 154 339 324 123 82 344 156 165 117 95 212 225 29 327 209 177 287 233 190 130 129 157 161 148 76 108 165 104 48 196 176 156 171 193 180 84 6 311 304 318 321 310 314 355 43 53 45 37 37 38 47
2 114 356 351 16 94 49 109 149 65 165 154 319 205 276 240 256 304 234 212 235 232 240 176 185 262 262 282 261 218 322 298 171 193 189 148 136 65 0 338 238 144 102 111 142 168 137 172 200 223 166 200 0 10 293 244 219 177 175 178 160 130 146 170 168 154 352 165 164 180 189 153 51 354 322 321 321 319 311 296 39 65 70 63 51 49 45 46
27 107 348 352 341 221 348 55 169 18 159 287 312 219 300 310 225 306 27 59 270 255 23 192 210 237 213 235 256 212 273 272 200 251 209 107 65 27 353 331 311 114 103 117 143 180 127 124 126 74 314 261 313 322 184 128 72 145 121 128 145 136 149 177 187 178 135 133 135 163 199 152 53 1 346 348 341 348 356 114 115 88 77 71 63 59 55 56
49 132 355 7 10 224 333 72 285 352 144 296 310 257 320 0 345 316 59 36 337 98 4 236 200 230 213 233 250 199 228 247 189 326 248 94 86 65 340 332 340 57 47 70 81 114 133 97 86 97 313 301 283 236 214 69 79 74 53 72 143 140 98 133 166 157 151 156 146 165 199 153 65 12 4 13 13 24 31 54 89 89 80 71 68 62 56 57
32 212 342 18 36 93 86 49 321 332 321 316 347 17 346 5 23 354 52 32 11 34 337 277 117 339 293 40 103 157 221 231 77 17 19 88 64 21 15 3 9 36 4 353 151 180 186 53 84 137 144 166 203 195 204 162 92 61 63 49 147 103 103 113 95 113 163 176 176 187 186 134 81 30 26 27 29 43 43 36 56 75 73 66 64 59 53 52
15 136 249 10 34 57 77 333 284 278 311 331 16 16 353 346 12 5 65 56 26 33 0 330 354 331 336 63 99 54 28 29 46 2 20 54 12 18 19 1 4 85 94 102 113 112 80 52 20 182 178 181 184 183 187 197 201 62 65 0 352 114 124 128 126 166 188 176 182 205 153 129 104 30 29 31 32 45 47 42 51 62 65 64 62 60 55 55
39 33 305 333 22 49 64 11 358 325 313 349 28 15 355 336 327 348 66 63 32 29 40 10 344 326 8 37 99 64 24 13 70 59 40 13 353 13 354 336 11 90 115 110 101 102 96 66 23 24 78 154 147 154 308 292 259 86 61 21 358 346 75 109 131 188 175 148 164 262 117 135 106 19 26 34 34 44 49 44 51 58 63 66 63 62 62 59
97 40 355 326 346 21 24 26 20 354 324 6 51 9 350 347 356 354 21 47 37 32 49 36 25 24 354 340 105 74 10 1 41 52 28 348 315 310 319 336 21 4 48 100 62 76 99 71 20 52 46 24 19 332 334 16 63 52 21 0 351 337 326 133 134 139 141 153 178 177 111 125 86 25 32 38 36 54 61 49 53 59 62 68 68 66 64 61
53 132 289 313 339 1 354 355 359 359 9 38 60 13 357 12 34 22 350 7 35 24 19 39 29 23 2 293 154 67 6 11 40 23 353 356 349 327 334 45 36 351 352 56 2 69 105 88 322 85 69 34 22 25 48 67 72 56 37 21 8 0 8 75 78 358 258 185 158 125 108 98 82 59 48 45 50 68 67 55 60 65 64 68 68 65 62 58
49 97 303 333 51 20 336 318 324 359 23 29 41 23 8 17 31 23 346 338 19 12 14 43 17 11 22 32 79 66 19 22 47 22 1 5 359 7 16 37 20 355 6 53 21 55 104 98 259 111 72 31 19 26 56 68 60 48 40 31 33 40 49 67 67 45 62 75 92 110 104 86 75 70 57 62 74 80 75 67 64 63 62 66 66 63 61 59
55 95 320 38 67 11 345 333 330 8 27 20 26 18 6 14 18 8 6 24 25 359 5 31 356 346 29 49 64 82 44 5 0 342 341 3 359 20 44 45 358 351 358 33 19 340 106 146 176 108 64 13 357 9 38 58 61 46 32 26 42 60 61 65 71 65 71 80 91 103 100 90 78 77 77 84 89 83 76 68 62 58 58 65 66 61 59 58
33 185 309 90 50 2 352 348 349 21 29 16 12 357 356 9 1 348 21 54 51 26 354 342 327 305 30 48 49 57 15 314 264 273 290 302 325 351 28 32 5 345 348 14 0 322 98 128 143 109 107 284 320 2 17 33 35 2 343 4 20 49 71 70 66 43 81 125 128 116 106 112 120 109 99 94 85 79 74 66 64 60 54 60 64 60 57 54
7 188 37 90 80 10 350 344 6 31 38 9 353 336 339 351 345 347 46 56 39 39 1 325 322 319 32 32 18 350 323 288 260 270 278 266 275 294 299 311 346 331 328 354 356 335 128 143 152 147 157 186 149 93 50 31 2 313 293 346 20 51 98 95 61 23 15 130 147 132 117 125 130 125 110 94 82 76 70 64 63 61 57 59 60 58 57 53